N7SXG Weather Reports


Display with metric or nautical units.
time (UTC)temp
F
wind
direction
speed
MPH
gust
MPH
rain 1hr
in
rain 24hr
in
rain mn
in
humidity
%
barometer
mb
20260504201559 71 248 10.0 21.0 0.00 0.00 0.00 55 1008.3
20260504200057 70 207 8.0 17.0 0.00 0.00 0.00 58 1008.2
20260504194555 69 219 9.0 26.0 0.00 0.00 0.00 58 1008.4
20260504193054 69 195 9.0 21.0 0.00 0.00 0.00 58 1008.5
20260504191605 70 178 10.0 26.0 0.00 0.00 0.00 58 1008.6
20260504190107 70 155 6.0 22.0 0.00 0.00 0.00 59 1008.7
20260504184553 70 135 9.0 22.0 0.00 0.00 0.00 58 1008.9
20260504183102 71 213 12.0 25.0 0.00 0.00 0.00 56 1008.9
20260504181558 72 186 10.0 24.0 0.00 0.00 0.00 53 1008.9
20260504180057 74 177 8.0 23.0 0.00 0.00 0.00 52 1008.3
20260504174557 74 213 8.0 24.0 0.00 0.00 0.00 54 1008.3
20260504173055 74 263 8.0 21.0 0.00 0.00 0.00 52 1008.3
20260504171558 73 126 8.0 19.0 0.00 0.00 0.00 52 1008.4
20260504140108 60 215 7.0 17.0 0.00 0.00 0.00 65 1010.0
20260504081556 49 360 2.0 9.0 0.00 0.00 0.00 67 1011.2
20260504050107 52 360 3.0 9.0 0.00 0.00 0.00 63 1012.7
20260504044559 52 360 4.0 12.0 0.00 0.00 0.00 63 1012.7
20260504043055 52 360 3.0 10.0 0.00 0.00 0.00 63 1012.9
20260504041601 52 360 2.0 11.0 0.00 0.00 0.00 64 1013.1
20260504040056 52 360 2.0 11.0 0.00 0.00 0.00 65 1013.3
20260504034555 51 360 2.0 8.0 0.00 0.00 0.00 66 1013.4
20260504033055 51 360 2.0 9.0 0.00 0.00 0.00 66 1013.5
20260504031558 51 360 1.0 8.0 0.00 0.00 0.00 68 1013.6
20260504030057 51 360 2.0 8.0 0.00 0.00 0.00 69 1013.7
20260504024615 50 360 2.0 6.0 0.00 0.00 0.00 69 1013.9
20260504023055 50 360 2.0 8.0 0.00 0.00 0.00 69 1014.1
20260504021557 50 360 3.0 10.0 0.00 0.00 0.00 69 1014.0
20260504020055 50 360 4.0 9.0 0.00 0.00 0.00 69 1014.0
20260504014604 50 360 4.0 10.0 0.00 0.00 0.00 70 1013.9
20260504013057 50 360 3.0 9.0 0.00 0.00 0.00 72 1014.0
20260504011607 50 360 2.0 8.0 0.00 0.00 0.00 73 1014.1
20260504010105 50 360 4.0 9.0 0.00 0.00 0.00 71 1014.1
20260504004553 50 360 3.0 8.0 0.00 0.00 0.00 69 1014.1
20260504003057 50 360 5.0 9.0 0.00 0.00 0.00 69 1013.9
20260504001552 50 360 2.0 8.0 0.00 0.00 0.00 69 1014.0
20260504000135 50 360 1.0 10.0 0.00 0.00 0.00 71 1014.0
20260503234559 49 360 5.0 10.0 0.00 0.00 0.00 74 1014.0
20260503233055 49 360 4.0 10.0 0.00 0.00 0.00 75 1013.9
20260503231555 49 360 4.0 8.0 0.00 0.00 0.00 76 1014.2
20260503230055 50 360 4.0 10.0 0.00 0.00 0.00 75 1014.5
20260503224555 50 0 2.0 6.0 0.00 0.00 0.00 75 1014.7
20260503223053 50 360 2.0 5.0 0.00 0.00 0.00 75 1015.2
20260503221559 50 360 0.0 3.0 0.00 0.00 0.00 74 1015.9
20260503220057 50 0 2.0 4.0 0.00 0.00 0.00 73 1016.0
20260503214555 50 0 0.0 5.0 0.00 0.00 0.00 70 1016.4
20260503213055 51 360 5.0 19.0 0.00 0.00 0.00 68 1017.1
20260503211617 53 360 9.0 28.0 0.00 0.00 0.00 60 1016.9
20260503210056 56 360 9.0 26.0 0.00 0.00 0.00 48 1016.5
20260503204555 58 360 12.0 23.0 0.00 0.00 0.00 41 1016.3
20260503203110 59 360 9.0 19.0 0.00 0.00 0.00 39 1016.2